Weather History for Miami, FL

Change the Weather History Date:

Monday, January 7, 2013

  Actual Average Record
Temperature  
Mean Temperature 75 °F 68 °F  
Max Temperature 81 °F 76 °F 86 °F (2009)
Min Temperature 68 °F 60 °F 40 °F (1903)
Degree Days  
Heating Degree Days 0 2  
Month to date heating degree days 0 14  
Since 1 July heating degree days 16 51  
Cooling Degree Days 10 5  
Month to date cooling degree days 69 35  
Year to date cooling degree days 69 35  
Growing Degree Days 24 (Base 50)    
Moisture  
Dew Point 67 °F    
Average Humidity 80    
Maximum Humidity 97    
Minimum Humidity 62    
Precipitation  
Precipitation 0.00 in 0.06 in 1.27 in (1938)
Month to date precipitation 0.06 0.36  
Year to date precipitation 0.06 0.36  
Snow  
Snow 0.00 in - - ()
Month to date snowfall 0.0  
Since 1 July snowfall 0.0  
Snow Depth 0.00 in    
Sea Level Pressure  
Sea Level Pressure 30.12 in    
Wind  
Wind Speed 5 mph (NE)    
Max Wind Speed 12 mph    
Max Gust Speed 23 mph    
Visibility 10 miles    
Events      
T = Trace of Precipitation, MM = Missing Value Source: NWS Daily Summary

Daily Weather History Graph

Daily Weather History Graph

Search for Another Location

Airport:

Trip Planner

Search our weather history database for the weather conditions in past years. The results will help you decide how hot, cold, wet, or windy it might be!

Date:

Astronomy

Jan. 07, 2013 Rise Set
Actual Time 7:09 AM EST 5:46 PM EST
Civil Twilight 6:44 AM EST 6:11 PM EST
Nautical Twilight 6:15 AM EST 6:39 PM EST
Astronomical Twilight 5:47 AM EST 7:07 PM EST
Moon 2:38 AM EST (1/7) 1:51 PM EST (1/7)
Length of Visible Light 11h 26m
Length of Day
10h 37m
Waning Crescent, 23% of the Moon is Illuminated
Jan 7
Waning Crescent
Jan 11
New
Jan 18
First Quarter
Jan 26
Full
Feb 3
Last Quarter

Hourly Weather History & Observations

Time (EST) Temp. Heat Index Dew Point Humidity Pressure Visibility Wind Dir Wind Speed Gust Speed Precip Events Conditions
12:53 AM 71.1 °F - 68.0 °F 90% 30.11 in 10.0 mi Calm Calm - N/A   Mostly Cloudy
1:53 AM 70.0 °F - 68.0 °F 93% 30.11 in 10.0 mi Calm Calm - N/A   Mostly Cloudy
2:53 AM 70.0 °F - 68.0 °F 93% 30.10 in 10.0 mi Calm Calm - N/A   Clear
3:53 AM 70.0 °F - 68.0 °F 93% 30.09 in 10.0 mi North 4.6 mph - N/A   Clear
4:53 AM 69.1 °F - 66.9 °F 93% 30.09 in 10.0 mi North 3.5 mph - N/A   Clear
5:53 AM 69.1 °F - 66.9 °F 93% 30.11 in 10.0 mi North 3.5 mph - N/A   Scattered Clouds
7:53 AM 69.1 °F - 66.9 °F 93% 30.14 in 10.0 mi Variable 3.5 mph - N/A   Mostly Cloudy
8:53 AM 73.0 °F - 68.0 °F 84% 30.16 in 10.0 mi Variable 3.5 mph - N/A   Scattered Clouds
9:29 AM 75.2 °F - 68.0 °F 78% 30.17 in 10.0 mi Variable 6.9 mph - N/A   Mostly Cloudy
9:51 AM 75.2 °F - 69.8 °F 83% 30.17 in 10.0 mi NE 5.8 mph - N/A   Mostly Cloudy
9:53 AM 75.9 °F - 69.1 °F 79% 30.17 in 10.0 mi NE 6.9 mph - N/A   Mostly Cloudy
10:53 AM 78.1 °F - 69.1 °F 74% 30.16 in 10.0 mi NE 5.8 mph - N/A   Mostly Cloudy
11:53 AM 79.0 °F - 66.9 °F 66% 30.14 in 10.0 mi Variable 3.5 mph - N/A   Mostly Cloudy
12:53 PM 79.0 °F - 66.0 °F 64% 30.10 in 10.0 mi ENE 5.8 mph - N/A   Mostly Cloudy
1:53 PM 80.6 °F 82.7 °F 66.2 °F 61% 30.09 in 10.0 mi NE 8.1 mph - N/A   Mostly Cloudy
2:53 PM 79.0 °F - 66.0 °F 64% 30.08 in 10.0 mi ENE 8.1 mph - N/A   Mostly Cloudy
3:53 PM 79.0 °F - 66.0 °F 64% 30.08 in 10.0 mi East 11.5 mph - N/A   Mostly Cloudy
4:53 PM 77.0 °F - 64.9 °F 66% 30.09 in 10.0 mi East 11.5 mph - N/A   Mostly Cloudy
5:53 PM 75.2 °F - 64.4 °F 69% 30.11 in 10.0 mi NE 6.9 mph - N/A   Mostly Cloudy
6:53 PM 75.0 °F - 64.9 °F 71% 30.13 in 10.0 mi NE 4.6 mph - N/A   Mostly Cloudy
7:53 PM 73.9 °F - 68.0 °F 82% 30.14 in 10.0 mi NNE 4.6 mph - N/A   Mostly Cloudy
8:53 PM 73.9 °F - 68.0 °F 82% 30.15 in 10.0 mi NNE 4.6 mph - N/A   Mostly Cloudy
9:53 PM 73.0 °F - 68.0 °F 84% 30.14 in 10.0 mi NNE 4.6 mph - N/A   Scattered Clouds
10:53 PM 73.0 °F - 68.0 °F 84% 30.13 in 10.0 mi NE 3.5 mph - N/A   Mostly Cloudy
11:53 PM 73.0 °F - 68.0 °F 84% 30.12 in 10.0 mi NNE 3.5 mph - N/A   Mostly Cloudy